Regional Weather Roundup
Issued by NWS

Home | Current Version | Previous Version | Graphics & Text | Print | Product List | Glossary On
Versions: 1 2 3 4 5 6 7 8 9 10 11 12 13 14 15 16 17 18 19 20 21 22 23 24 25 26 27 28
000
ASUS45 KBOU 201710
RWRCO

WEATHER ROUNDUP FOR COLORADO
NATIONAL WEATHER SERVICE DENVER/BOULDER CO
1000 AM MST SAT JAN 20 2018

NOTE: "FAIR" INDICATES FEW OR NO CLOUDS BELOW 12000 FEET WITH NO
SIGNIFICANT WEATHER AND/OR OBSTRUCTIONS TO VISIBILITY.

COZ001>005-013-030-031-201800-
...NORTHWEST COLORADO...

CITY           SKY/WX    TMP DP  RH WIND       PRES   REMARKS
CRAIG          LGT SNOW  32  27  81 CALM      29.81R
HAYDEN         LGT RAIN N/A N/A N/A W9        29.81R
MEEKER         LGT RAIN  40  33  76 SW10      29.80R
RABBIT EARS PA CLOUDY    28  27  93 S14G24    29.84F WCI  17
STEAMBOAT SPGS CLOUDY    38  27  63 SW5       29.78R
WALDEN         FAIR      41  23  48 S20G30    29.80F
$$

COZ006>008-011-201800-
...WEST CENTRAL VALLEYS...

CITY           SKY/WX    TMP DP  RH WIND       PRES   REMARKS
GRAND JUNCTION PTSUNNY   51  27  39 SE20      29.75F
MONTROSE       PTSUNNY   53  21  28 S18G28    29.83R
EAGLE          CLOUDY    40  23  50 CALM      29.83S
RIFLE          CLOUDY    38  34  85 W6        29.80R
DELTA          CLOUDY    49  25  39 CALM      29.81F
NUCLA          PTSUNNY   52  23  32 S22G31    29.83F
$$

COZ017>023-064>068-201800-
...SOUTHWEST COLORADO...

CITY           SKY/WX    TMP DP  RH WIND       PRES   REMARKS
DURANGO        CLOUDY    34  22  61 E6        29.97R WCI  29
CORTEZ         CLOUDY    47  17  30 SE24      29.88F
PAGOSA SPRINGS CLOUDY    37  19  48 CALM      30.01S
TELLURIDE      CLOUDY    37  22  56 S13G25    29.96R
WOLF CREEK PAS FLURRIES  21  14  73 S14G21    30.10R WCI   8
$$

COZ009-010-012-014-032>034-037-058>063-201800-
...CENTRAL COLORADO...

CITY           SKY/WX    TMP DP  RH WIND       PRES   REMARKS
ASPEN          PTSUNNY   41  22  46 CALM      29.81F
BUENA VISTA    CLOUDY    37  15  41 CALM      29.90F
COPPER MTN     NOT AVBL
BERTHOUD PASS  FAIR      27  14  59 SW25G43   29.93R WCI  11
COTTONWOOD PAS   N/A     37  19  48 SE9       29.93S
GUNNISON       FAIR      16  12  84 S3        29.93F
KREMMLING      FAIR      36  21  55 SE5       29.84F
LEADVILLE      FAIR      33  16  49 S14G20    29.89S WCI  23
MONARCH PASS   PTSUNNY   27  18  69 SW18G25   30.07F WCI  13
SALIDA         FAIR      46  17  30 S15G24    29.97S
SUNLIGHT       CLOUDY    27  21  80 S6G25     29.91R WCI  20
WILKERSON PASS FAIR      30  14  51 SW13G23   29.96S WCI  20
$$

COZ069>075-201800-
...SAN LUIS VALLEY/SANGRE DE CRISTO MOUNTAINS...

CITY           SKY/WX    TMP DP  RH WIND       PRES   REMARKS
ALAMOSA        FAIR      40  15  36 S8        29.94S
DEL NORTE      FAIR      35  14  43 NE6       29.95S WCI  30
LA VETA PASS   FAIR      34  16  47 S28G48      N/A  WCI  20
SAGUACHE       FAIR      36  16  44 S6        29.96S
$$

COZ035-036-038>040-201800-
...NORTHERN COLORADO FRONT RANGE...

CITY           SKY/WX    TMP DP  RH WIND       PRES   REMARKS
DENVER INTL AP PTSUNNY   42  20  41 N12       29.79R
DMNS CITY PARK NOT AVBL
AURORA         PTSUNNY   50  17  27 SW10      29.77S
FRONT RANGE AP PTSUNNY   46  21  36 NE6       29.79R
ERIE MUNI ARPT FAIR      43  21  41 N18       29.84R
BOULDER MUN AP FAIR      43  21  42 NE13G18   29.82R
CENTENNIAL     PTSUNNY   52  19  27 SW24G35   29.76F
BROOMFIELD     PTSUNNY   48  16  27 VRB5      29.79R
FORT COLLINS   FAIR      38  21  50 NW5       29.82R
LONGMONT       PTSUNNY   44  22  40 N7        29.83R
$$

COZ041-046-047-076>085-087-088-201800-
...PIKES PEAK/PALMER DIVIDE AND SOUTHERN FOOTHILLS...

CITY           SKY/WX    TMP DP  RH WIND       PRES   REMARKS
COLO. SPRINGS  PTSUNNY   57  19  22 SW8       29.83R
A. F. ACADEMY  FAIR      47  15  28 CALM      29.81F
SCHRIEVER AFB  FAIR      56  16  20 W15       29.82S
CHEYENNE MTN   FAIR      51  17  25 SE15      29.77F
ELLICOTT         N/A    N/A N/A N/A W7        29.81R
FALCON         FAIR      53  14  21 W8        29.85S
FORT CARSON    FAIR      54  19  25 S3        29.80R
LIMON          FAIR      57  19  22 W6        29.79R
MONUMENT HILL  FAIR      50  18  27 SW16G22   29.85S
CANON CITY     FAIR      45  21  39 W9        29.80F
WALSENBURG     FAIR      59  23  25 SW32G41   29.82S
TRINIDAD       FAIR      60  21  22 SW13      29.84F
$$

COZ042>045-048>051-090-091-201800-
...NORTHEAST COLORADO...

CITY           SKY/WX    TMP DP  RH WIND       PRES   REMARKS
GREELEY ARPT   FAIR      40  26  57 NE21      29.81S
AKRON          FAIR      40  27  59 NE7       29.79R
BURLINGTON     FAIR      46  27  47 N6        29.78R
WRAY           FAIR      41  32  70 NE9       29.81S
YUMA           FAIR      37  28  70 NE7       29.80S
STERLING       FAIR      37  30  75 NE14      29.82R
HOLYOKE        FAIR      43  32  65 NE9       29.84R
FORT MORGAN    FAIR      42  26  52 N13       29.81S
$$

COZ086-089-092>099-201800-
...SOUTHEAST COLORADO...

CITY           SKY/WX    TMP DP  RH WIND       PRES   REMARKS
PUEBLO         FAIR      58  20  22 W8        29.78S
LA JUNTA       FAIR      61  24  24 SW7       29.77S
LAMAR          FAIR      58  21  24 W17       29.74F
SPRINGFIELD      N/A     68  22  17 W13G18    29.76F
$$




USA.gov is the U.S. government's official web portal to all federal, state and local government web resources and services.